FW8870 Weather Reports


time (UTC)temp
F
wind
direction
speed
knots
gust
knots
rain 1hr
in
rain 24hr
in
rain mn
in
humidity
%
barometer
mb
20260509012815 59 6 0.0 0.0 0.00 0.00 0.00 68 1023.3
20260509012312 60 339 0.0 0.0 0.00 0.00 0.00 69 1023.0
20260509011809 60 118 0.0 0.0 0.00 0.00 0.00 71 1023.0
20260509011306 60 322 0.0 0.0 0.00 0.00 0.00 69 1022.8
20260509010804 60 66 0.0 0.0 0.00 0.00 0.00 69 1022.9
20260509010301 60 23 0.0 0.0 0.00 0.00 0.00 70 1022.9
20260509005758 60 306 0.0 0.0 0.00 0.00 0.00 69 1023.0
20260509005256 60 178 0.9 1.7 0.00 0.00 0.00 68 1022.9
20260509004755 61 206 0.0 0.9 0.00 0.00 0.00 66 1023.3
20260509004252 61 314 0.0 0.0 0.00 0.00 0.00 67 1022.9
20260509003751 61 308 0.0 0.0 0.00 0.00 0.00 65 1022.7
20260509003248 61 166 1.7 2.6 0.00 0.00 0.00 65 1022.7
20260509002745 60 323 0.0 0.0 0.00 0.00 0.00 67 1022.9
20260509002243 61 332 0.0 0.0 0.00 0.00 0.00 67 1023.0
20260509001740 60 296 0.0 0.0 0.00 0.00 0.00 66 1022.9
20260509001235 61 342 0.0 0.0 0.00 0.00 0.00 63 1022.8
20260509000734 61 327 0.0 0.0 0.00 0.00 0.00 63 1023.1
20260509000231 61 271 0.0 0.0 0.00 0.00 0.00 63 1022.8
20260508235728 60 40 0.0 0.0 0.00 0.00 0.00 71 1022.9
20260508235224 60 3 0.0 0.0 0.00 0.00 0.00 71 1022.8
20260508234722 60 346 0.0 0.0 0.00 0.00 0.00 68 1022.8
20260508234218 61 358 0.0 0.0 0.00 0.00 0.00 69 1022.8
20260508233717 61 320 0.0 0.0 0.00 0.00 0.00 68 1022.8
20260508233215 61 1 0.0 0.0 0.00 0.00 0.00 67 1022.5
20260508232712 61 352 0.0 0.0 0.00 0.00 0.00 70 1022.6
20260508232208 62 348 0.0 0.0 0.00 0.00 0.00 65 1022.7
20260508231707 62 300 0.0 0.0 0.00 0.00 0.00 65 1022.5
20260508231203 61 328 0.0 0.0 0.00 0.00 0.00 65 1022.5
20260508230700 62 0 0.0 0.9 0.00 0.00 0.00 66 1022.5
20260508230156 61 311 0.0 0.0 0.00 0.00 0.00 70 1022.6
20260508225654 60 328 0.0 0.0 0.00 0.00 0.00 71 1022.6
20260508225150 61 350 0.0 0.0 0.00 0.00 0.00 67 1022.6
20260508224648 61 347 0.9 2.6 0.00 0.00 0.00 67 1022.5
20260508224145 62 49 0.0 0.0 0.00 0.00 0.00 66 1022.6
20260508223643 61 356 1.7 4.3 0.00 0.00 0.00 67 1022.6
20260508223140 60 23 0.0 0.0 0.00 0.00 0.00 69 1022.6
20260508222637 61 319 0.0 0.0 0.00 0.00 0.00 67 1022.3
20260508222134 60 342 0.0 0.0 0.00 0.00 0.00 69 1022.4
20260508221630 61 322 0.0 0.0 0.00 0.00 0.00 69 1022.4
20260508221126 62 18 0.0 0.0 0.00 0.00 0.00 64 1022.4
20260508220623 63 357 0.0 0.0 0.00 0.00 0.00 63 1022.6
20260508220120 62 329 0.0 0.0 0.00 0.00 0.00 65 1022.4
20260508215617 62 342 0.0 0.0 0.00 0.00 0.00 64 1022.4
20260508215113 61 305 0.0 0.0 0.00 0.00 0.00 59 1022.4
20260508214610 62 323 0.0 0.0 0.00 0.00 0.00 59 1022.5
20260508214107 63 231 3.5 5.2 0.00 0.00 0.00 59 1022.6
20260508213604 61 307 0.0 0.0 0.00 0.00 0.00 61 1022.3
20260508213100 63 282 0.0 0.0 0.00 0.00 0.00 64 1022.3
20260508212557 64 304 0.0 1.7 0.00 0.00 0.00 61 1022.1
20260508212053 63 354 0.0 0.0 0.00 0.00 0.00 61 1022.2
20260508211548 62 237 0.0 0.0 0.00 0.00 0.00 70 1022.3
20260508211045 62 319 0.0 0.0 0.00 0.00 0.00 67 1022.2
20260508210542 62 344 0.0 0.0 0.00 0.00 0.00 64 1022.3
20260508210039 62 315 0.0 0.0 0.00 0.00 0.00 62 1022.1
20260508205536 63 294 0.0 0.0 0.00 0.00 0.00 65 1022.2
20260508205032 62 291 0.0 0.0 0.00 0.00 0.00 70 1022.1
20260508204529 62 345 2.6 4.3 0.00 0.00 0.00 65 1021.8
20260508204025 64 174 1.7 2.6 0.00 0.00 0.00 62 1022.0
20260508203521 63 325 0.9 2.6 0.00 0.00 0.00 64 1021.9
20260508203017 62 332 0.0 0.9 0.00 0.00 0.00 65 1021.9
20260508202514 62 335 0.0 0.0 0.00 0.00 0.00 67 1021.7
20260508202011 63 354 0.0 0.0 0.00 0.00 0.00 64 1021.6
20260508201508 62 245 0.0 0.0 0.00 0.00 0.00 66 1021.9
20260508201005 61 223 0.0 0.0 0.00 0.00 0.00 66 1021.7
20260508200502 62 27 0.0 0.9 0.00 0.00 0.00 69 1021.7
20260508195956 62 163 0.0 0.0 0.00 0.00 0.00 70 1021.7
20260508195454 62 332 0.0 0.0 0.00 0.00 0.00 67 1021.6
20260508194950 63 187 0.9 1.7 0.00 0.00 0.00 67 1021.6
20260508194448 61 146 0.9 2.6 0.00 0.00 0.00 69 1021.4
20260508193944 62 193 0.0 1.7 0.00 0.00 0.00 68 1021.5
20260508193441 61 84 0.0 1.7 0.00 0.00 0.00 75 1021.6
20260508192938 60 192 0.0 0.9 0.00 0.00 0.00 73 1021.5
20260508192434 60 170 0.9 0.9 0.00 0.00 0.00 74 1021.5
20260508191931 60 299 0.0 0.0 0.00 0.00 0.00 75 1021.5
20260508191429 59 102 0.9 1.7 0.00 0.00 0.00 74 1021.5
20260508190925 59 322 0.0 0.0 0.00 0.00 0.00 76 1021.6
20260508190423 58 307 0.0 0.0 0.00 0.00 0.00 81 1021.4
20260508185918 58 351 0.0 0.0 0.00 0.00 0.00 79 1021.7
20260508185416 58 172 0.0 1.7 0.00 0.00 0.00 80 1021.9
20260508184914 57 31 2.6 5.2 0.00 0.00 0.00 79 1021.5
20260508184411 58 335 0.0 0.0 0.00 0.00 0.00 80 1021.4
20260508183907 58 94 0.0 0.0 0.00 0.00 0.00 81 1021.1
20260508183404 58 91 0.9 0.9 0.00 0.00 0.00 80 1021.2
20260508182859 58 162 0.9 4.3 0.00 0.00 0.00 80 1021.0
20260508182357 58 102 0.0 0.0 0.00 0.00 0.00 81 1021.0
20260508181852 58 318 0.0 0.0 0.00 0.00 0.00 81 1021.0
20260508181349 59 10 0.0 0.0 0.00 0.00 0.00 77 1021.2
20260508180846 59 127 0.0 1.7 0.00 0.00 0.00 77 1021.0
20260508180343 60 350 0.0 0.0 0.00 0.00 0.00 78 1020.7
20260508175839 61 159 0.0 0.0 0.00 0.00 0.00 78 1020.9
20260508175335 59 321 0.0 0.0 0.00 0.00 0.00 76 1020.8
20260508174834 59 310 0.0 0.0 0.00 0.00 0.00 77 1020.5
20260508174331 59 292 0.0 0.0 0.00 0.00 0.00 79 1020.8
20260508173827 58 189 0.0 0.0 0.00 0.00 0.00 80 1020.6
20260508173325 58 334 0.0 0.0 0.00 0.00 0.00 80 1020.6
20260508172820 58 241 0.0 0.0 0.00 0.00 0.00 80 1020.5
20260508172317 59 4 0.0 0.0 0.00 0.00 0.00 81 1020.6
20260508171814 58 347 0.0 0.0 0.00 0.00 0.00 81 1020.4
20260508171310 58 33 4.3 5.2 0.00 0.00 0.00 79 1020.2
20260508170807 58 160 0.0 0.9 0.00 0.00 0.00 80 1020.1
20260508170306 59 199 3.5 6.1 0.00 0.00 0.00 79 1020.2
20260508165801 57 336 0.0 0.0 0.00 0.00 0.00 81 1020.2
20260508165259 56 272 0.0 0.0 0.00 0.00 0.00 83 1020.2
20260508164754 57 20 0.0 0.0 0.00 0.00 0.00 84 1020.5
20260508164252 57 161 2.6 4.3 0.00 0.00 0.00 81 1020.2
20260508163750 57 162 0.0 0.0 0.00 0.00 0.00 82 1020.3
20260508163247 57 353 0.0 0.0 0.00 0.00 0.00 81 1020.3
20260508162743 57 137 0.0 0.0 0.00 0.00 0.00 82 1020.2
20260508162240 56 275 0.0 0.0 0.00 0.00 0.00 84 1020.2
20260508161737 56 103 0.9 2.6 0.00 0.00 0.00 84 1020.3
20260508161234 55 228 0.0 0.0 0.00 0.00 0.00 85 1020.0
20260508160732 55 290 0.0 0.0 0.00 0.00 0.00 85 1020.1
20260508160230 55 354 0.0 0.0 0.00 0.00 0.00 87 1020.2
20260508155726 54 29 0.0 0.0 0.00 0.00 0.00 88 1020.3
20260508155223 54 356 0.0 0.0 0.00 0.00 0.00 89 1020.3
20260508154720 54 136 0.0 0.0 0.00 0.00 0.00 89 1020.4
20260508154217 54 301 0.0 0.0 0.00 0.00 0.00 89 1020.5
20260508153714 54 338 0.0 0.0 0.00 0.00 0.00 88 1020.3
20260508153211 54 292 0.0 0.0 0.00 0.00 0.00 88 1020.3
20260508152708 54 313 0.0 0.0 0.00 0.00 0.00 89 1020.3
20260508152203 54 306 0.0 0.0 0.00 0.00 0.00 89 1020.3
20260508151700 54 323 0.0 0.0 0.00 0.00 0.00 88 1020.2
20260508151157 54 151 0.9 1.7 0.00 0.00 0.00 89 1019.9
20260508150654 54 283 0.0 0.0 0.00 0.00 0.00 89 1019.8
20260508150150 53 229 0.0 0.0 0.00 0.00 0.00 89 1020.1
20260508145646 53 227 1.7 4.3 0.00 0.00 0.00 90 1019.9
20260508145142 53 118 0.9 4.3 0.00 0.00 0.00 90 1019.7
20260508144640 53 148 0.0 0.9 0.00 0.00 0.00 90 1019.7
20260508144138 53 120 0.0 0.0 0.00 0.00 0.00 91 1019.4
20260508143635 53 256 0.0 0.0 0.00 0.00 0.00 92 1019.6
20260508143132 53 89 0.0 0.0 0.00 0.00 0.00 92 1019.4
20260508142628 53 301 0.0 0.0 0.00 0.00 0.00 92 1019.2
20260508142125 53 154 0.0 0.0 0.00 0.00 0.00 92 1019.3
20260508141622 53 201 0.0 0.0 0.00 0.00 0.00 94 1019.4
20260508141119 53 287 0.0 0.0 0.00 0.00 0.00 94 1019.4
20260508140616 52 287 0.0 0.0 0.00 0.00 0.00 94 1019.2
20260508140113 52 186 0.0 0.0 0.00 0.00 0.00 95 1019.1
20260508135608 52 211 0.0 0.0 0.00 0.00 0.00 98 1019.1
20260508135105 51 323 0.0 0.0 0.00 0.00 0.00 99 1019.0
20260508134602 51 303 0.0 0.0 0.00 0.00 0.00 99 1019.0
20260508134059 51 338 0.0 0.0 0.00 0.00 0.00 99 1019.1
20260508133555 51 332 0.0 0.0 0.00 0.00 0.00 99 1019.2
20260508133053 51 334 0.0 0.0 0.00 0.00 0.00 99 1019.1
20260508132550 51 316 0.0 0.0 0.00 0.00 0.00 99 1019.0
20260508132047 51 317 0.0 0.0 0.00 0.00 0.00 99 1018.8
20260508131542 51 300 0.0 0.0 0.00 0.00 0.00 99 1018.8
20260508131039 51 316 0.0 0.0 0.00 0.00 0.00 99 1018.9
20260508130537 51 308 0.0 0.0 0.00 0.00 0.00 99 1018.9
20260508130033 51 308 0.0 0.0 0.00 0.00 0.00 99 1018.8
20260508125529 51 253 0.0 0.0 0.00 0.00 0.00 99 1018.7
20260508125027 51 294 0.0 0.0 0.00 0.00 0.00 99 1018.7
20260508124524 50 308 0.0 0.0 0.00 0.00 0.00 99 1018.9
20260508124021 50 302 0.0 0.0 0.00 0.00 0.00 99 1018.9
20260508123520 50 301 0.0 0.0 0.00 0.00 0.00 99 1018.7
20260508123016 50 280 0.0 0.0 0.00 0.00 0.00 99 1018.8
20260508122513 50 314 0.0 0.0 0.00 0.00 0.00 99 1018.6
20260508122010 50 306 0.0 0.0 0.00 0.00 0.00 99 1018.6
20260508121508 50 336 0.0 0.0 0.00 0.00 0.00 99 1018.7
20260508121006 50 306 0.0 0.0 0.00 0.00 0.00 99 1018.6
20260508120503 50 148 0.0 0.0 0.00 0.00 0.00 99 1018.6
20260508120001 50 60 0.0 0.0 0.00 0.00 0.00 99 1018.5
20260508115458 50 2 0.0 0.0 0.00 0.00 0.00 99 1018.6
20260508114955 50 355 0.0 0.0 0.00 0.00 0.00 99 1018.6
20260508114452 50 331 0.0 0.0 0.00 0.00 0.00 99 1018.5
20260508113948 50 347 0.0 0.0 0.00 0.00 0.00 99 1018.7
20260508113446 50 279 0.0 0.0 0.00 0.00 0.00 99 1018.6
20260508112943 50 338 0.0 0.0 0.00 0.00 0.00 99 1018.5
20260508112439 50 327 0.0 0.0 0.00 0.00 0.00 99 1018.5
20260508111936 50 338 0.0 0.0 0.00 0.00 0.00 99 1018.6
20260508111433 50 334 0.0 0.0 0.00 0.00 0.00 99 1018.6
20260508110930 50 309 0.0 0.0 0.00 0.00 0.00 99 1018.5
20260508110428 50 330 0.0 0.0 0.00 0.00 0.00 99 1018.6
20260508105927 50 325 0.0 0.0 0.00 0.00 0.00 99 1018.7
20260508105424 50 289 0.0 0.0 0.00 0.00 0.00 99 1018.6
20260508104921 50 331 0.0 0.0 0.00 0.00 0.00 99 1018.5
20260508104419 50 358 0.0 0.0 0.00 0.00 0.00 99 1018.5
20260508103915 51 299 0.0 0.0 0.00 0.00 0.00 99 1018.7
20260508103413 51 316 0.0 0.0 0.00 0.00 0.00 99 1018.5
20260508102909 51 321 0.0 0.0 0.00 0.00 0.00 99 1018.4
20260508102408 51 347 0.0 0.0 0.00 0.00 0.00 99 1018.3
20260508101905 52 349 0.0 0.0 0.00 0.00 0.00 99 1018.5
20260508101402 51 330 0.0 0.0 0.00 0.00 0.00 98 1018.4
20260508100859 52 329 0.0 0.0 0.00 0.00 0.00 97 1018.4
20260508100358 52 330 0.0 0.0 0.00 0.00 0.00 96 1018.3
20260508095853 53 325 0.0 0.0 0.00 0.00 0.00 95 1018.3
20260508095352 53 314 0.0 0.0 0.00 0.00 0.00 94 1017.9
20260508094848 54 309 0.0 0.0 0.00 0.00 0.00 93 1018.2
20260508094345 53 325 0.0 0.0 0.00 0.00 0.00 93 1018.1
20260508093842 54 324 0.0 0.0 0.00 0.00 0.00 93 1018.2
20260508093339 53 69 0.0 0.0 0.00 0.00 0.00 94 1018.1
20260508092836 53 330 0.0 0.0 0.00 0.00 0.00 95 1017.9
20260508092334 53 336 0.0 0.0 0.00 0.00 0.00 95 1017.9
20260508091832 53 341 0.0 0.0 0.00 0.00 0.00 94 1017.9
20260508091328 54 337 0.0 0.0 0.00 0.00 0.00 94 1018.0
20260508090826 53 334 0.0 0.0 0.00 0.00 0.00 96 1018.2
20260508090325 53 315 0.0 0.0 0.00 0.00 0.00 96 1018.1
20260508085820 53 323 0.0 0.0 0.00 0.00 0.00 96 1018.0
20260508085317 53 339 0.0 0.0 0.00 0.00 0.00 97 1017.9
20260508084814 53 339 0.0 0.0 0.00 0.00 0.00 96 1018.2
20260508084311 54 351 0.0 0.0 0.00 0.00 0.00 96 1018.2
20260508083808 54 350 0.0 0.0 0.00 0.00 0.00 96 1018.2
20260508083306 54 324 0.0 0.0 0.00 0.00 0.00 95 1018.3
20260508082805 54 340 0.0 0.0 0.00 0.00 0.00 95 1018.3
20260508082306 54 294 0.0 0.0 0.00 0.00 0.00 95 1018.3
20260508081801 54 338 0.0 0.0 0.00 0.00 0.00 95 1018.5
20260508081257 54 335 0.0 0.0 0.00 0.00 0.00 95 1018.2
20260508080754 54 334 0.0 0.0 0.00 0.00 0.00 95 1018.5
20260508080252 54 320 0.0 0.0 0.00 0.00 0.00 95 1018.4
20260508075748 54 320 0.0 0.0 0.00 0.00 0.00 94 1018.6
20260508075245 54 314 0.0 0.0 0.00 0.00 0.00 94 1018.4
20260508074743 54 316 0.0 0.0 0.00 0.00 0.00 93 1018.6
20260508074240 54 314 0.0 0.0 0.00 0.00 0.00 94 1018.3
20260508073737 54 315 0.0 0.0 0.00 0.00 0.00 94 1018.4
20260508073235 54 314 0.0 0.0 0.00 0.00 0.00 94 1018.6
20260508072731 54 321 0.0 0.0 0.00 0.00 0.00 93 1018.5
20260508072228 54 321 0.0 0.0 0.00 0.00 0.00 93 1018.6
20260508071725 54 321 0.0 0.0 0.00 0.00 0.00 93 1018.3
20260508071224 54 321 0.0 0.0 0.00 0.00 0.00 93 1018.6
20260508070721 54 322 0.0 0.0 0.00 0.00 0.00 93 1018.7
20260508070219 54 321 0.0 0.0 0.00 0.00 0.00 93 1018.5
20260508065716 54 322 0.0 0.0 0.00 0.00 0.00 92 1018.6
20260508065214 54 322 0.0 0.0 0.00 0.00 0.00 93 1018.6
20260508064711 55 322 0.0 0.0 0.00 0.00 0.00 92 1018.6
20260508064209 55 322 0.0 0.0 0.00 0.00 0.00 92 1018.5
20260508063707 55 323 0.0 0.0 0.00 0.00 0.00 92 1018.7
20260508063204 55 312 0.0 0.0 0.00 0.00 0.00 91 1018.7
20260508062701 55 328 0.0 0.0 0.00 0.00 0.00 91 1018.4
20260508062158 55 329 0.0 0.0 0.00 0.00 0.00 90 1018.4
20260508061655 55 320 0.0 0.0 0.00 0.00 0.00 90 1018.3
20260508061153 56 336 0.0 0.0 0.00 0.00 0.00 87 1018.5
20260508060649 56 337 0.0 0.0 0.00 0.00 0.00 87 1018.4
20260508060147 57 344 0.0 0.0 0.00 0.00 0.00 85 1018.3
20260508055642 57 347 0.0 0.0 0.00 0.00 0.00 83 1018.3
20260508055139 57 347 0.0 0.0 0.00 0.00 0.00 83 1018.5
20260508054636 57 331 0.0 0.0 0.00 0.00 0.00 82 1018.4
20260508054134 57 329 0.0 0.0 0.00 0.00 0.00 83 1018.5
20260508053630 57 340 0.0 0.0 0.00 0.00 0.00 82 1018.6
20260508053128 57 340 0.0 0.0 0.00 0.00 0.00 84 1018.4
20260508052625 57 336 0.0 0.0 0.00 0.00 0.00 88 1018.6
20260508052122 57 323 0.0 0.0 0.00 0.00 0.00 86 1018.5
20260508051618 57 2 0.0 0.0 0.00 0.00 0.00 86 1018.6
20260508051113 58 321 0.0 0.0 0.00 0.00 0.00 84 1018.6
20260508050610 58 331 0.0 0.0 0.00 0.00 0.00 81 1018.4
20260508050108 58 301 0.0 0.0 0.00 0.00 0.00 80 1018.7
20260508045604 58 316 0.0 0.0 0.00 0.00 0.00 82 1018.7
20260508045102 57 311 0.0 0.0 0.00 0.00 0.00 84 1018.8
20260508044559 58 339 0.0 0.0 0.00 0.00 0.00 87 1018.6
20260508044055 58 0 0.0 0.0 0.00 0.00 0.00 81 1018.6
20260508043551 58 319 0.0 0.0 0.00 0.00 0.00 82 1018.6
20260508043049 59 309 0.0 0.0 0.00 0.00 0.00 81 1018.8
20260508042545 59 328 0.0 0.0 0.00 0.00 0.00 81 1018.8
20260508042043 59 306 0.0 0.0 0.00 0.00 0.00 81 1018.5
20260508041539 59 323 0.0 0.0 0.00 0.00 0.00 79 1018.7
20260508041035 59 340 0.0 0.0 0.00 0.00 0.00 81 1018.7
20260508040532 59 321 0.0 0.0 0.00 0.00 0.00 80 1018.7
20260508040030 59 344 0.0 0.0 0.00 0.00 0.00 82 1018.7
20260508035527 59 338 0.0 0.0 0.00 0.00 0.00 83 1018.5
20260508035024 59 343 0.0 0.0 0.00 0.00 0.00 83 1018.5
20260508034521 59 338 0.0 0.0 0.00 0.00 0.00 88 1018.5
20260508034018 59 338 0.0 0.0 0.00 0.00 0.00 86 1018.4
20260508033516 59 338 0.0 0.0 0.00 0.00 0.00 87 1018.5
20260508033014 59 338 0.0 0.0 0.00 0.00 0.00 85 1018.4
20260508032510 60 334 0.0 0.0 0.00 0.00 0.00 83 1018.4
20260508032008 60 333 0.0 0.0 0.00 0.00 0.00 79 1018.6
20260508031505 60 334 0.0 0.0 0.00 0.00 0.00 77 1018.5
20260508030959 61 327 0.0 0.0 0.00 0.00 0.00 77 1018.6
20260508030457 61 319 0.0 0.0 0.00 0.00 0.00 77 1018.8
20260508025955 61 320 0.0 0.0 0.00 0.00 0.00 77 1018.7
20260508025451 60 339 0.0 0.0 0.00 0.00 0.00 79 1018.7
20260508024948 60 337 0.0 0.0 0.00 0.00 0.00 78 1018.6
20260508024444 61 318 0.0 0.0 0.00 0.00 0.00 82 1018.5
20260508023941 61 318 0.0 0.0 0.00 0.00 0.00 81 1018.6
20260508023438 61 318 0.0 0.0 0.00 0.00 0.00 83 1018.5
20260508022935 61 318 0.0 0.0 0.00 0.00 0.00 81 1018.4
20260508022431 61 318 0.0 0.0 0.00 0.00 0.00 80 1018.7
20260508021927 61 318 0.0 0.0 0.00 0.00 0.00 81 1018.5
20260508021424 61 318 0.0 0.0 0.00 0.00 0.00 81 1018.6
20260508020919 62 318 0.0 0.0 0.00 0.00 0.00 79 1018.6
20260508020418 62 317 0.0 0.0 0.00 0.00 0.00 76 1018.6
20260508015914 61 336 0.0 0.0 0.00 0.00 0.00 75 1018.8
20260508015413 62 354 0.0 0.0 0.00 0.00 0.00 72 1018.7
20260508014908 62 331 0.0 0.0 0.00 0.00 0.00 73 1018.9
20260508014406 62 340 0.0 0.0 0.00 0.00 0.00 73 1018.9
20260508013902 61 305 0.0 0.0 0.00 0.00 0.00 73 1018.9
20260508013357 62 289 0.0 0.0 0.00 0.00 0.00 75 1019.0